Regional Weather Roundup
Issued by NWS

Home | Current Version | Previous Version | Text Only | Print | Product List | Glossary On
Versions: 1 2 3 4 5 6 7 8 9 10 11 12 13 14 15 16 17 18 19 20 21 22 23 24 25 26 27 28 29 30 31 32 33 34 35 36 37 38 39 40 41 42 43 44 45 46 47 48 49 50
000
ASUS45 KBOI 190210
RWRID

IDAHO REGIONAL WEATHER ROUNDUP
NATIONAL WEATHER SERVICE BOISE ID
700 PM MST WED JAN 18 2017

NOTE: "FAIR" INDICATES FEW OR NO CLOUDS BELOW 12000 FEET
WITH NO SIGNIFICANT WEATHER AND/OR OBSTRUCTIONS TO VISIBILITY

IDZ012-014-190300-
SOUTHWEST IDAHO


CITY           SKY/WX    TMP DP  RH WIND       PRES   REMARKS
BOISE          FRZ RAIN  32  30  92 S16       29.75F WCI  21
CALDWELL       LGT SNOW  30  30 100 SE20      29.76F FOG     WCI  18
MOUNTAIN HOME  DRIZZLE   32  26  77 SE23      29.78F WCI  20
$$

IDZ016-017-190300-
SOUTHCENTRAL IDAHO


CITY           SKY/WX    TMP DP  RH WIND       PRES   REMARKS
BURLEY         CLOUDY    29  20  69 NE13      29.79F WCI  19
JEROME         MIX PCPN  27  21  78 NE24      29.78F WCI  12
TWIN FALLS     MIX PCPN  29  22  75 E8        29.77F WCI  21
$$

IDZ019>023-190300-
SOUTHEAST IDAHO


CITY           SKY/WX    TMP DP  RH WIND       PRES   REMARKS
IDAHO FALLS    CLOUDY    17  12  80 NE5       29.90F WCI  10
POCATELLO      CLOUDY    21  15  78 NE6       29.88F WCI  13
REXBURG        CLOUDY    18  13  80 CALM      29.88F
$$

IDZ006-010-011-018-031-032-190300-
CENTRAL IDAHO MOUNTAINS


CITY           SKY/WX    TMP DP  RH WIND       PRES   REMARKS
MCCALL         LGT SNOW  32  29  88 SE8       29.64F VSB 1   WCI  25
HAILEY         LGT SNOW  27  27 100 SE7       29.82F VSB 1   WCI  19
STANLEY          N/A     33  31  92 S9        29.71F WCI  25
SALMON         CLOUDY    14   9  79 CALM      29.80F
CHALLIS        CLOUDY    17  13  84 W3        29.78F
$$

IDZ002-004-006-007-026-190300-
NORTHERN IDAHO


CITY           SKY/WX    TMP DP  RH WIND       PRES   REMARKS
LEWISTON       LGT RAIN  39  31  72 S9        29.60R WCI  33
LOWELL           N/A     33  31  92 CALM      29.66F
COEUR D`ALENE  CLOUDY    35  34  96 NE9       29.55F WCI  28
MULLAN PASS    CLOUDY    32  30  92 VRB6      29.54F FOG     WCI  26
$$



USA.gov is the U.S. government's official web portal to all federal, state and local government web resources and services.